User: anonymous   Login
Location: Austin
(30.3000°N, 97.7500°W)
Time: 04:29:33
(UTC-06:00)
Language:

Cosmos 1655 Rocket - Orbit

View from above orbital plane
View from above orbital plane
View from above satellite
View from above satellite

Ground track
Ground track

The orbit data is extracted from the following two-line orbital elements,

1 15752U 85041B   23331.62625544  .00000082  00000-0  71918-4 0  9994
2 15752  82.9514   9.7360 0025306  63.9754 296.4003 13.73208938928722
Epoch (UTC): 27 November 2023 15:01:48
Eccentricity: 0.0025306
inclination: 82.9514°
perigee height: 969 km
apogee height: 1007 km
right ascension of ascending node: 9.7360°
argument of perigee: 63.9754°
revolutions per day: 13.73208938
mean anomaly at epoch: 296.4003°
orbit number at epoch: 92872

The dashed part of the orbit path shows where the satellite is in the earth's shadow,  

DLR